Regional Weather Roundup
Issued by NWS Little Rock, AR

Home | Current Version | Previous Version | Graphics & Text | Print | Product List | Glossary On
Versions: 1 2 3 4 5 6 7 8 9 10 11 12 13 14 15 16 17 18 19 20 21 22 23 24 25 26 27 28 29 30 31 32 33 34 35 36 37 38 39 40 41 42 43 44 45 46 47 48 49 50
676
ASUS44 KLZK 130605
RWRLZK

WEATHER ROUNDUP FOR ARKANSAS
NATIONAL WEATHER SERVICE LITTLE ROCK AR
1200 AM CST SAT FEB 13 2016

NOTE: "FAIR" INDICATES FEW OR NO CLOUDS BELOW 12,000 FEET WITH NO
SIGNIFICANT WEATHER AND/OR OBSTRUCTIONS TO VISIBILITY.

ARZ001-003-010-029-130700-
NORTHWEST ARKANSAS

CITY           SKY/WX    TMP DP  RH WIND       PRES   REMARKS
FAYETTEVILLE   MOCLDY    35  23  61 NE6       30.48R WCI  30
6HR MIN TEMP:  35; 6HR MAX TEMP:  44;

FORT SMITH     CLOUDY    45  24  43 NE7       30.45R
6HR MIN TEMP:  44; 6HR MAX TEMP:  53;

HARRISON       CLOUDY    30  16  56 N5        30.48R WCI  25
6HR MIN TEMP:  30; 6HR MAX TEMP:  42;

BENTONVILLE    CLEAR     32  16  51 NE9       30.49S WCI  24
6HR MIN TEMP:  32; 6HR MAX TEMP:  43;

ROGERS         PTCLDY    29  18  63 NE9       30.49R WCI  20
6HR MIN TEMP:  29; 6HR MAX TEMP:  42;

SILOAM SPGS    CLOUDY    34  16  47 NE9       30.48S WCI  26
6HR MIN TEMP:  34; 6HR MAX TEMP:  43;

HIGHFILL       CLOUDY    32  19  58 NE13      30.48R WCI  22
6HR MIN TEMP:  32; 6HR MAX TEMP:  42;

$$

ARZ004-005-016-130700-
NORTH CENTRAL ARKANSAS

CITY           SKY/WX    TMP DP  RH WIND       PRES   REMARKS
BATESVILLE     MOCLDY    37  18  44 CALM      30.49R
6HR MIN TEMP:  37; 6HR MAX TEMP:  50;

FLIPPIN        MOCLDY    34  12  40 N9        30.49R WCI  26
6HR MIN TEMP:  34; 6HR MAX TEMP:  46;

MTN HOME       CLEAR     30  14  51 VRB6      30.49R WCI  24
6HR MIN TEMP:  30; 6HR MAX TEMP:  44;

$$

ARZ040-041-130700-
WEST CENTRAL ARKANSAS

CITY           SKY/WX    TMP DP  RH WIND       PRES   REMARKS
MENA           MOCLDY    48  30  49 N7        30.40S
MOUNT IDA      CLOUDY    47  26  44 CALM      30.38S
6HR MIN TEMP:  42; 6HR MAX TEMP:  57;

$$

ARZ009-017-025-026-028-130700-
NORTHEAST ARKANSAS

CITY           SKY/WX    TMP DP  RH WIND       PRES   REMARKS
CORNING        FAIR      32  16  51 N13G18    30.51R WCI  22
JONESBORO      CLEAR     30  25  81 E6        30.48R WCI  24
6HR MIN TEMP:  30; 6HR MAX TEMP:  47;

NEWPORT        PTCLDY    36  20  52 N15       30.50R
6HR MIN TEMP:  36; 6HR MAX TEMP:  47;

WALNUT RIDGE   CLEAR     32  16  51 N13       30.50R WCI  22
6HR MIN TEMP:  32; 6HR MAX TEMP:  45;

BLYTHEVILLE    CLEAR     30  19  63 N12       30.48R WCI  20
6HR MIN TEMP:  30; 6HR MAX TEMP:  42;

$$

ARZ022-023-033-042-044-130700-
CENTRAL ARKANSAS

CITY           SKY/WX    TMP DP  RH WIND       PRES   REMARKS
LITTLE ROCK    CLOUDY    46  24  42 N15G21    30.44R
6HR MIN TEMP:  45; 6HR MAX TEMP:  56;

JACKSONVILLE   CLOUDY    43  23  44 N10       30.43R
6HR MIN TEMP:  43; 6HR MAX TEMP:  55;

SEARCY         PTCLDY    39  23  52 N12       30.46S
6HR MIN TEMP:  39; 6HR MAX TEMP:  52;

HOT SPRINGS    CLOUDY    48  27  44 NE10      30.43R
6HR MIN TEMP:  48; 6HR MAX TEMP:  59;

RUSSELLVILLE   CLOUDY    43  24  47 N12       30.45R
6HR MIN TEMP:  43; 6HR MAX TEMP:  57;

CLINTON        FAIR      39  21  48 CALM      30.47R
$$

ARZ036-130700-
EAST ARKANSAS

CITY           SKY/WX    TMP DP  RH WIND       PRES   REMARKS
WEST MEMPHIS   CLEAR     35  26  69 N9        30.45R HAZE    WCI  28
6HR MIN TEMP:  35; 6HR MAX TEMP:  45;

$$

ARZ050-053-066-070-073-130700-
SOUTHWEST ARKANSAS

CITY           SKY/WX    TMP DP  RH WIND       PRES   REMARKS
ARKADELPHIA    FAIR      49  29  46 NE7       30.42R
6HR MIN TEMP:  43; 6HR MAX TEMP:  61;

CAMDEN         PTCLDY    39  32  75 CALM      30.41R
TEXARKANA      CLEAR     50  32  50 NE9       30.37S
6HR MIN TEMP:  49; 6HR MAX TEMP:  62;

EL DORADO      PTCLDY    44  34  67 NE6       30.38R
6HR MIN TEMP:  42; 6HR MAX TEMP:  59;

DE QUEEN       CLEAR     40  33  76 SE5       30.37S
6HR MIN TEMP:  38; 6HR MAX TEMP:  61;

$$

ARZ056-057-069-130700-
SOUTHEAST ARKANSAS

CITY           SKY/WX    TMP DP  RH WIND       PRES   REMARKS
PINE BLUFF     PTCLDY    43  28  55 N15       30.43R
6HR MIN TEMP:  39; 6HR MAX TEMP:  52;

STUTTGART      CLEAR     43  27  52 N14       30.44S
6HR MIN TEMP:  43; 6HR MAX TEMP:  52;

MONTICELLO     CLEAR     45  30  55 N6        30.40R
6HR MIN TEMP:  38; 6HR MAX TEMP:  55;


$$






USA.gov is the U.S. government's official web portal to all federal, state and local government web resources and services.